Location: Agadir-Ikarkaouin
(31.1503°N, 9.0246°W)
Time: 03:55:04
(UTC+00:00)

Cosmos 1464 Rocket - Pass Details

Date: 18 September 2020
Orbit: 953 x 1000 km, 82.9° (Epoch: 23 October)

Event Time Altitude Azimuth Distance (km) Brightness Sun altitude
Rises 19:37:17 0° 173° (S) 3,614 6.8 -13.6°
Reaches altitude 10° 19:39:48 10° 169° (S) 2,671 6.1 -14.1°
Maximum altitude 19:45:45 58° 92° (E) 1,105 4.0 -15.3°
Drops below altitude 10° 19:51:45 10° 15° (NNE) 2,691 6.3 -16.6°
Sets 19:54:18 0° 11° (NNE) 3,644 7.0 -17.1°
